Location: Shannon
(40.5500°S, 175.4167°E)
Time: 21:08:53
(UTC+00:00)

MSX - Pass Details

Date: 17 November 2025
Orbit: 893 x 905 km, 99.0° (Epoch: 14 December)

Event Time Altitude Azimuth Distance (km) Brightness Sun altitude
Exits shadow 13:30:27 58° 272° (W) 1,054 4.0 -27.0°
Drops below altitude 10° 13:36:01 10° 202° (SSW) 2,616 6.8 -26.6°
Sets 13:38:30 0° 197° (SSW) 3,566 7.6 -26.4°
